This is the latest recevied weather packets stored in our database for station/object KB1FFS. If no packets are shown the sender has not sent any weather packets the latest 10 day(s).
| Time | Temp. | Humidity | Pressure | Rain* | Wind** | Luminosity | Snow |
|---|---|---|---|---|---|---|---|
| 1777733373 | 20.56° C | 55% | 1023.4 hPa | 0 mm | - | 54 W/m² | - |
| 1777733070 | 20.56° C | 56% | 1023.4 hPa | 0 mm | - | 53 W/m² | - |
| 1777732766 | 20° C | 57% | 1023.4 hPa | 0 mm | - | 53 W/m² | - |
| 1777732463 | 20° C | 59% | 1023.4 hPa | 0 mm | - | 54 W/m² | - |
| 1777732160 | 19.44° C | 63% | 1023.4 hPa | 0 mm | - | 54 W/m² | - |
| 1777731857 | 18.89° C | 62% | 1023.3 hPa | 0 mm | - | 57 W/m² | - |
| 1777731554 | 18.89° C | 67% | 1023.2 hPa | 0 mm | - | 52 W/m² | - |
| 1777731252 | 18.33° C | 66% | 1023.3 hPa | 0 mm | - | 47 W/m² | - |
| 1777730949 | 18.33° C | 67% | 1023.3 hPa | 0 mm | - | 46 W/m² | - |
| 1777730648 | 17.78° C | 70% | 1023.1 hPa | 0 mm | - | 45 W/m² | - |
| 1777730343 | 17.78° C | 69% | 1023 hPa | 0 mm | - | 43 W/m² | - |
| 1777730040 | 17.78° C | 72% | 1023 hPa | 0 mm | - | 42 W/m² | - |
| 1777729736 | 17.22° C | 73% | 1023.2 hPa | 0 mm | - | 41 W/m² | - |
| 1777729433 | 16.67° C | 75% | 1023.1 hPa | 0 mm | - | 40 W/m² | - |
| 1777729129 | 16.11° C | 77% | 1023.2 hPa | 0 mm | - | 39 W/m² | - |
| 1777728826 | 15.56° C | 79% | 1023 hPa | 0 mm | - | 38 W/m² | - |
| 1777728523 | 15° C | 81% | 1022.9 hPa | 0 mm | - | 37 W/m² | - |
| 1777728221 | 14.44° C | 82% | 1022.8 hPa | 0 mm | - | 36 W/m² | - |
| 1777727917 | 13.89° C | 85% | 1022.9 hPa | 0 mm | - | 35 W/m² | - |
| 1777727614 | 13.33° C | 88% | 1022.8 hPa | 0 mm | - | 34 W/m² | - |
| 1777727311 | 12.78° C | 93% | 1022.8 hPa | 0 mm | - | 33 W/m² | - |
| 1777727009 | 12.22° C | 94% | 1023 hPa | 0 mm | - | 32 W/m² | - |
| 1777726706 | 11.67° C | 95% | 1022.9 hPa | 0 mm | - | 32 W/m² | - |
| 1777726403 | 11.11° C | 95% | 1022.6 hPa | 0 mm | - | 30 W/m² | - |
| 1777726100 | 10.56° C | 95% | 1022.7 hPa | 0 mm | - | 29 W/m² | - |
* Rain latest hour (hover to see other rain measurements)
** Current wind speed in m/s (hover to see current wind gust speed)